Adana Incirlik AFB, Turkey

2:09 PM +03 on January 22, 2018 (GMT +0300)
Incirlik Air Base

Weather History for LTAG - February, 2013

Change the Weather History Date:

Tuesday, February 19, 2013

  Actual Average Record
Temperature  
Mean Temperature 50 °F -  
Max Temperature 60 °F 65 °F 77 °F (2016)
Min Temperature 39 °F 47 °F 33 °F (2012)
Degree Days  
Heating Degree Days 16    
Moisture  
Dew Point 39 °F    
Average Humidity 71    
Maximum Humidity 100    
Minimum Humidity 26    
Precipitation  
Precipitation 0.00 in - - ()
Sea Level Pressure  
Sea Level Pressure 30.01 in    
Wind  
Wind Speed 4 mph ()    
Max Wind Speed 9 mph    
Max Gust Speed -    
Visibility 6.3 miles    
Events      
Averages and records for this station are not official NWS values.
T = Trace of Precipitation, MM = Missing Value Source: Averaged Metar Reports

Daily Weather History Graph

Daily Weather History Graph

Search for Another Location

Airport or City:

Trip Planner

Search our weather history database for the weather conditions in past years. The results will help you decide how hot, cold, wet, or windy it might be!

Date:

Astronomy

Feb. 19, 2013 Rise Set
Actual Time 6:22 AM EET 5:22 PM EET
Civil Twilight 5:55 AM EET 5:48 PM EET
Nautical Twilight 5:25 AM EET 6:19 PM EET
Astronomical Twilight 4:55 AM EET 6:49 PM EET
Moon 11:42 AM EET (2/19) 1:32 AM EET (2/19)
Length of Visible Light 11h 53m
Length of Day
11h 00m
Waxing Gibbous, 64% of the Moon is Illuminated
Feb 19
Waxing Gibbous
Feb 25
Full
Mar 4
Last Quarter
Mar 11
New
Mar 19
First Quarter

Hourly Weather History & Observations

Time (EET) Temp. Windchill Dew Point Humidity Pressure Visibility Wind Dir Wind Speed Gust Speed Precip Events Conditions
12:20 AM 42.8 °F - 42.8 °F 100% 29.95 in 6.2 mi NE 2.3 mph - N/A   Scattered Clouds
12:50 AM 42.8 °F 41.1 °F 41.0 °F 93% 29.95 in 6.2 mi NNE 3.5 mph - N/A   Scattered Clouds
1:20 AM 42.8 °F 41.1 °F 41.0 °F 93% 29.98 in 6.2 mi NNE 3.5 mph - N/A   Scattered Clouds
1:50 AM 42.8 °F 41.1 °F 39.2 °F 87% 29.98 in 6.2 mi NE 3.5 mph - N/A   Scattered Clouds
2:00 AM 42 °F - 40 °F 89% 29.99 in 6 mi NE 3.5 mph - -   Partly Cloudy
2:20 AM 42.8 °F - 41.0 °F 93% 29.98 in 6.2 mi NE 2.3 mph - N/A   Scattered Clouds
2:50 AM 44.6 °F - 42.8 °F 93% 29.98 in 6.2 mi NW 2.3 mph - N/A   Scattered Clouds
3:20 AM 42.8 °F - 35.6 °F 76% 29.98 in 6.2 mi North 2.3 mph - N/A   Scattered Clouds
3:50 AM 42.8 °F 39.3 °F 37.4 °F 81% 29.98 in 6.2 mi North 5.8 mph - N/A   Scattered Clouds
4:20 AM 42.8 °F 37.5 °F 37.4 °F 81% 29.98 in 6.2 mi NNE 9.2 mph - N/A   Partly Cloudy
4:50 AM 39.2 °F - 35.6 °F 87% 29.98 in 6.2 mi NNE 2.3 mph - N/A   Partly Cloudy
5:20 AM 41.0 °F - 35.6 °F 81% 29.98 in 6.2 mi North 2.3 mph - N/A   Partly Cloudy
5:50 AM 41.0 °F - 35.6 °F 81% 29.98 in 6.2 mi ENE 2.3 mph - N/A   Partly Cloudy
6:20 AM 39.2 °F - 35.6 °F 87% 30.01 in 6.2 mi NE 2.3 mph - N/A   Partly Cloudy
6:50 AM 41.0 °F 38.0 °F 35.6 °F 81% 30.01 in 6.2 mi NE 4.6 mph - N/A   Partly Cloudy
7:20 AM 42.8 °F - 37.4 °F 81% 30.01 in 6.2 mi NE 2.3 mph - N/A   Partly Cloudy
7:50 AM 46.4 °F - 39.2 °F 76% 30.01 in 6.2 mi ESE 2.3 mph - N/A   Partly Cloudy
8:20 AM 50.0 °F - 37.4 °F 62% 30.04 in 6.2 mi North 5.8 mph - N/A   Partly Cloudy
8:50 AM 51.8 °F - 37.4 °F 58% 30.04 in 6.2 mi North 5.8 mph - N/A   Partly Cloudy
9:20 AM 53.6 °F - 37.4 °F 54% 30.04 in 6.2 mi North 5.8 mph - N/A   Partly Cloudy
9:50 AM 55.4 °F - 35.6 °F 47% 30.04 in 6.2 mi NNE 6.9 mph - N/A   Partly Cloudy
10:20 AM 57.2 °F - 35.6 °F 44% 30.04 in 6.2 mi NE 6.9 mph - N/A   Partly Cloudy
10:50 AM 59.0 °F - 35.6 °F 42% 30.04 in 6.2 mi NNE 6.9 mph - N/A   Partly Cloudy
11:20 AM 59.0 °F - 30.2 °F 34% 30.04 in 6.2 mi North 4.6 mph - N/A   Partly Cloudy
11:50 AM 59.0 °F - 32.0 °F 36% 30.01 in 6.2 mi WNW 3.5 mph - N/A   Partly Cloudy
12:20 PM 59.0 °F - 33.8 °F 39% 30.01 in 6.2 mi WNW 5.8 mph - N/A   Partly Cloudy
12:50 PM 60.8 °F - 33.8 °F 36% 30.01 in 6.2 mi South 6.9 mph - N/A   Partly Cloudy
1:20 PM 60.8 °F - 33.8 °F 36% 30.01 in 6.2 mi South 5.8 mph - N/A   Partly Cloudy
1:50 PM 60.8 °F - 33.8 °F 36% 30.01 in 6.2 mi South 3.5 mph - N/A   Partly Cloudy
2:00 PM 60 °F - 34 °F 26% 30.03 in 6 mi South 3.5 mph - -   Scattered Clouds
2:20 PM 60.8 °F - 37.4 °F 42% 30.01 in - North - - N/A   Partly Cloudy
2:50 PM 60.8 °F - 33.8 °F 36% 30.01 in - North - - N/A   Partly Cloudy
3:20 PM 60.8 °F - 33.8 °F 36% 30.01 in - North - - N/A   Partly Cloudy
3:50 PM 59.0 °F - 33.8 °F 39% 30.01 in - North - - N/A   Partly Cloudy
4:20 PM 59.0 °F - 42.8 °F 55% 30.01 in 6.2 mi South 8.1 mph - N/A   Partly Cloudy
4:50 PM 57.2 °F - 42.8 °F 59% 30.01 in 6.2 mi SSW 8.1 mph - N/A   Scattered Clouds
5:20 PM 53.6 °F - 44.6 °F 72% 30.01 in 6.2 mi SW 5.8 mph - N/A   Scattered Clouds
5:50 PM 53.6 °F - 44.6 °F 72% 30.01 in 6.2 mi SSW 4.6 mph - N/A   Scattered Clouds
6:20 PM 53.6 °F - 44.6 °F 72% 30.04 in 6.2 mi Calm Calm - N/A   Scattered Clouds
6:50 PM 53.6 °F - 44.6 °F 72% 30.04 in 6.2 mi SW 3.5 mph - N/A   Scattered Clouds
7:20 PM 51.8 °F - 44.6 °F 76% 30.04 in 6.2 mi East 2.3 mph - N/A   Scattered Clouds
7:50 PM 48.2 °F - 44.6 °F 87% 30.04 in 6.2 mi NE 5.8 mph - N/A   Scattered Clouds
8:00 PM 49 °F - 46 °F 83% 30.05 in 12 mi NE 5.8 mph - -   Partly Cloudy
8:20 PM 48.2 °F - 46.4 °F 93% 30.04 in 6.2 mi NE 5.8 mph - N/A   Scattered Clouds
8:50 PM 46.4 °F 42.9 °F 46.4 °F 100% 30.04 in 6.2 mi NE 6.9 mph - N/A   Scattered Clouds
9:20 PM 46.4 °F 42.9 °F 46.4 °F 100% 30.04 in 6.2 mi NE 6.9 mph - N/A   Scattered Clouds
9:50 PM 44.6 °F 40.7 °F 44.6 °F 100% 30.04 in 6.2 mi NE 6.9 mph - N/A   Scattered Clouds
10:20 PM 44.6 °F 40.7 °F 44.6 °F 100% 30.04 in 6.2 mi NE 6.9 mph - N/A   Scattered Clouds
10:50 PM 44.6 °F 40.7 °F 44.6 °F 100% 30.04 in 6.2 mi NE 6.9 mph - N/A   Mostly Cloudy
11:20 PM 44.6 °F 40.7 °F 44.6 °F 100% 30.04 in 6.2 mi NE 6.9 mph - N/A   Mostly Cloudy
11:50 PM 46.4 °F 44.3 °F 44.6 °F 93% 30.04 in 6.2 mi NE 4.6 mph - N/A   Mostly Cloudy